Accueil
METAR-TAF:

METAR-TAF

Aéroports :

Ballina, Australie

latitude: 28-50-00S, longitude: 153-33-42E, altitude: 2 m

Observation

Le bulletin a été fait il y a 34 minutes, à 22:00 UTC
Vent 4 kt de ouest/nord-ouest, variant entre ouest et nord/nord-ouest
Température 19°C
Humidité 73%
Pression 1021 hPa
Visibilité 10 km ou plus

METAR: YBNA 232200Z AUTO 30004KT 270V330 9999 // NCD 19/14 Q1021

Heure: 09:34 (22:34 UTC)


TAF: absent

Observations et prévisions météorologiques de plus de 4000 aéroports (messages METAR et TAF).

Les stations disponibles sont représentées par des disques jaunes et rouges sur la carte.

Passer la souris dessus pour voir le nom de la station.

Cliquer dessus pour voir les observations et prévisions météorologiques.

Pour changer de carte: cliquez sur les boutons verts avec une croix noire pour zoomer, sur le bouton vert avec un tiret pour effectuer un zoom arrière, ou sur les flèches vertes pour les cartes adjacentes.


METAR-TAF: